Location: Newark
(31.5350°N, 35.0986°E)
Time: 01:02:29
(UTC+00:00)

SR - Pass Details

Date: 24 October 2019
Orbit: 574 x 882 km, 66.7° (Epoch: 18 November)

Event Time Altitude Azimuth Distance (km) Brightness Sun altitude
Rises 18:17:10 0° 210° (SSW) 2,963 - -42.8°
Reaches altitude 10° 18:19:22 10° 212° (SSW) 2,099 - -43.3°
Maximum altitude 18:24:08 71° 296° (WNW) 764 - -44.3°
Drops below altitude 10° 18:29:24 10° 21° (NNE) 2,317 - -45.3°
Sets 18:31:57 0° 23° (NNE) 3,297 - -45.9°
